• Em Portugal
  • Lista de países
  • Para 7 dias
  • Temperatura da água
  • Mapas de satélite
  • Mapa do tempo
  • Widgets de tempo
  • user-avatar
    Iniciar Sessão

    Previsão horária em Grzmiaca

    Hoje, 22 Abril, Domingo

    Tempo Temperatura Precipitação Vento Pressão Humidade
    00:00 +11°C° 0 mm 1 m/s 720 mmHg 82%
    01:00 +10°C° 0 mm 1 m/s 720 mmHg 82%
    02:00 +10°C° 0 mm 1 m/s 720 mmHg 81%
    03:00 +9°C° 0 mm 1 m/s 719 mmHg 81%
    04:00 +9°C° 0 mm 1 m/s 719 mmHg 80%
    05:00 +10°C° 0 mm 1 m/s 719 mmHg 76%
    06:00 +11°C° 0 mm 1 m/s 720 mmHg 72%
    07:00 +12°C° 0 mm 1 m/s 720 mmHg 68%
    08:00 +14°C° 0 mm 1 m/s 720 mmHg 63%
    09:00 +16°C° 0 mm 1 m/s 720 mmHg 58%
    10:00 +19°C° 0 mm 1 m/s 720 mmHg 52%
    11:00 +20°C° 0 mm 1 m/s 720 mmHg 50%
    12:00 +21°C° 0 mm 1 m/s 720 mmHg 47%
    13:00 +22°C° 0 mm 1 m/s 719 mmHg 45%
    14:00 +20°C° 0 mm 2 m/s 719 mmHg 46%
    15:00 +20°C° 0 mm 2 m/s 719 mmHg 46%
    16:00 +20°C° 0 mm 2 m/s 718 mmHg 47%
    17:00 +18°C° 0 mm 2 m/s 718 mmHg 54%
    18:00 +16°C° 0 mm 2 m/s 718 mmHg 61%
    19:00 +14°C° 0 mm 1 m/s 717 mmHg 68%
    20:00 +14°C° 0 mm 1 m/s 717 mmHg 69%
    21:00 +13°C° 0 mm 2 m/s 717 mmHg 71%
    22:00 +12°C° 0 mm 2 m/s 717 mmHg 72%
    23:00 +12°C° 0,1 mm 2 m/s 717 mmHg 74%

    Amanhã, 23 Abril, Segunda-feira

    Tempo Temperatura Precipitação Vento Pressão Humidade
    00:00 +12°C° 0,1 mm 2 m/s 717 mmHg 75%
    01:00 +12°C° 0,1 mm 2 m/s 717 mmHg 77%
    02:00 +12°C° 0,2 mm 2 m/s 717 mmHg 79%
    03:00 +12°C° 0,2 mm 2 m/s 716 mmHg 81%
    04:00 +13°C° 0,2 mm 2 m/s 716 mmHg 83%
    05:00 +14°C° 0 mm 2 m/s 716 mmHg 82%
    06:00 +15°C° 0 mm 2 m/s 716 mmHg 80%
    07:00 +16°C° 0 mm 2 m/s 716 mmHg 79%
    08:00 +17°C° 0 mm 3 m/s 716 mmHg 73%
    09:00 +19°C° 0 mm 4 m/s 717 mmHg 67%
    10:00 +21°C° 0 mm 5 m/s 717 mmHg 61%
    11:00 +21°C° 0,1 mm 5 m/s 717 mmHg 58%
    12:00 +22°C° 0,1 mm 5 m/s 716 mmHg 55%
    13:00 +22°C° 0,1 mm 6 m/s 716 mmHg 51%
    14:00 +21°C° 0,5 mm 5 m/s 716 mmHg 58%
    15:00 +20°C° 0,5 mm 5 m/s 716 mmHg 65%
    16:00 +19°C° 0,5 mm 5 m/s 716 mmHg 72%
    17:00 +17°C° 0,4 mm 4 m/s 716 mmHg 77%
    18:00 +15°C° 0,4 mm 4 m/s 716 mmHg 81%
    19:00 +14°C° 0,4 mm 3 m/s 716 mmHg 86%
    20:00 +13°C° 0 mm 3 m/s 717 mmHg 87%
    21:00 +12°C° 0 mm 3 m/s 717 mmHg 89%
    22:00 +11°C° 0 mm 3 m/s 717 mmHg 90%
    23:00 +10°C° 0 mm 2 m/s 718 mmHg 90%

    Depois de amanhã, 24 Abril, Terça-feira

    Tempo Temperatura Precipitação Vento Pressão Humidade
    00:00 +9°C° 0 mm 2 m/s 718 mmHg 91%
    01:00 +8°C° 0 mm 2 m/s 718 mmHg 91%
    02:00 +8°C° 0 mm 2 m/s 718 mmHg 91%
    03:00 +8°C° 0 mm 2 m/s 719 mmHg 91%
    04:00 +7°C° 0 mm 2 m/s 719 mmHg 91%
    05:00 +8°C° 0 mm 2 m/s 719 mmHg 87%
    06:00 +9°C° 0 mm 3 m/s 719 mmHg 83%
    07:00 +10°C° 0 mm 3 m/s 720 mmHg 79%
    08:00 +11°C° 0 mm 3 m/s 720 mmHg 72%
    09:00 +13°C° 0 mm 4 m/s 720 mmHg 65%
    10:00 +14°C° 0 mm 4 m/s 720 mmHg 58%
    11:00 +15°C° 0 mm 4 m/s 720 mmHg 56%
    12:00 +17°C° 0 mm 4 m/s 720 mmHg 54%
    13:00 +17°C° 0 mm 4 m/s 719 mmHg 52%
    14:00 +18°C° 0 mm 4 m/s 719 mmHg 52%
    15:00 +18°C° 0 mm 4 m/s 719 mmHg 51%
    16:00 +18°C° 0 mm 4 m/s 718 mmHg 51%
    17:00 +17°C° 0 mm 3 m/s 718 mmHg 57%
    18:00 +15°C° 0 mm 2 m/s 718 mmHg 62%
    19:00 +14°C° 0 mm 2 m/s 717 mmHg 68%
    20:00 +13°C° 0 mm 2 m/s 717 mmHg 71%
    21:00 +12°C° 0 mm 2 m/s 717 mmHg 73%
    22:00 +10°C° 0 mm 2 m/s 718 mmHg 76%
    23:00 +10°C° 0 mm 2 m/s 717 mmHg 77%

    25 Abril, Quarta-feira

    Tempo Temperatura Precipitação Vento Pressão Humidade
    00:00 +10°C° 0 mm 2 m/s 717 mmHg 78%
    01:00 +9°C° 0 mm 2 m/s 717 mmHg 79%
    02:00 +9°C° 0 mm 2 m/s 717 mmHg 81%
    03:00 +9°C° 0 mm 2 m/s 716 mmHg 82%
    04:00 +8°C° 0 mm 2 m/s 716 mmHg 83%
    05:00 +10°C° 0 mm 3 m/s 716 mmHg 79%
    06:00 +11°C° 0 mm 3 m/s 716 mmHg 74%
    07:00 +12°C° 0 mm 4 m/s 716 mmHg 70%
    08:00 +14°C° 0 mm 5 m/s 716 mmHg 65%
    09:00 +16°C° 0 mm 6 m/s 716 mmHg 60%
    10:00 +18°C° 0 mm 7 m/s 716 mmHg 55%
    11:00 +18°C° 0 mm 7 m/s 716 mmHg 52%
    12:00 +20°C° 0 mm 7 m/s 715 mmHg 49%
    13:00 +21°C° 0 mm 8 m/s 715 mmHg 46%
    14:00 +21°C° 0,1 mm 7 m/s 714 mmHg 50%
    15:00 +21°C° 0,1 mm 6 m/s 714 mmHg 54%
    16:00 +20°C° 0,1 mm 6 m/s 714 mmHg 57%
    17:00 +19°C° 0,2 mm 5 m/s 714 mmHg 63%
    18:00 +17°C° 0,2 mm 4 m/s 714 mmHg 69%
    19:00 +14°C° 0,2 mm 3 m/s 714 mmHg 75%
    20:00 +13°C° 0 mm 3 m/s 714 mmHg 79%
    21:00 +12°C° 0 mm 3 m/s 714 mmHg 84%
    22:00 +12°C° 0 mm 2 m/s 715 mmHg 88%
    23:00 +10°C° 0 mm 2 m/s 715 mmHg 89%

    26 Abril, Quinta-feira

    Tempo Temperatura Precipitação Vento Pressão Humidade
    00:00 +10°C° 0 mm 2 m/s 715 mmHg 90%
    01:00 +9°C° 0 mm 2 m/s 716 mmHg 91%
    02:00 +10°C° 0 mm 1 m/s 716 mmHg 92%
    03:00 +9°C° 0 mm 1 m/s 716 mmHg 93%
    04:00 +9°C° 0 mm 1 m/s 716 mmHg 94%
    05:00 +10°C° 0 mm 1 m/s 716 mmHg 90%
    06:00 +10°C° 0 mm 2 m/s 716 mmHg 86%
    07:00 +12°C° 0 mm 2 m/s 717 mmHg 82%
    08:00 +14°C° 0 mm 2 m/s 717 mmHg 74%
    09:00 +14°C° 0 mm 3 m/s 717 mmHg 66%
    10:00 +16°C° 0 mm 3 m/s 717 mmHg 58%
    11:00 +17°C° 0 mm 4 m/s 716 mmHg 56%
    12:00 +17°C° 0 mm 4 m/s 716 mmHg 54%
    13:00 +17°C° 0 mm 4 m/s 716 mmHg 51%
    14:00 +15°C° 0,1 mm 4 m/s 716 mmHg 57%
    15:00 +14°C° 0,1 mm 3 m/s 716 mmHg 64%
    16:00 +13°C° 0,1 mm 3 m/s 716 mmHg 70%
    17:00 +12°C° 0,1 mm 3 m/s 716 mmHg 73%
    18:00 +12°C° 0,1 mm 2 m/s 716 mmHg 76%
    19:00 +10°C° 0,1 mm 2 m/s 716 mmHg 79%
    20:00 +10°C° 0 mm 2 m/s 716 mmHg 79%
    21:00 +9°C° 0 mm 2 m/s 717 mmHg 79%
    22:00 +8°C° 0 mm 2 m/s 717 mmHg 79%
    23:00 +8°C° 0 mm 2 m/s 717 mmHg 78%

    27 Abril, Sexta-feira

    Tempo Temperatura Precipitação Vento Pressão Humidade
    00:00 +8°C° 0 mm 2 m/s 717 mmHg 78%
    01:00 +7°C° 0 mm 2 m/s 717 mmHg 77%
    02:00 +7°C° 0 mm 2 m/s 717 mmHg 78%
    03:00 +8°C° 0 mm 1 m/s 717 mmHg 78%
    04:00 +7°C° 0 mm 1 m/s 717 mmHg 79%
    05:00 +8°C° 0 mm 1 m/s 717 mmHg 79%
    06:00 +7°C° 0 mm 2 m/s 717 mmHg 78%
    07:00 +7°C° 0 mm 2 m/s 717 mmHg 77%
    08:00 +8°C° 0,1 mm 2 m/s 717 mmHg 74%
    09:00 +8°C° 0,1 mm 2 m/s 718 mmHg 70%
    10:00 +9°C° 0,1 mm 2 m/s 718 mmHg 67%
    11:00 +10°C° 0,1 mm 2 m/s 718 mmHg 64%
    12:00 +10°C° 0,1 mm 2 m/s 718 mmHg 61%
    13:00 +12°C° 0,1 mm 2 m/s 718 mmHg 58%
    14:00 +12°C° 0,2 mm 1 m/s 717 mmHg 56%
    15:00 +12°C° 0,2 mm 1 m/s 717 mmHg 55%
    16:00 +13°C° 0,2 mm 1 m/s 717 mmHg 54%
    17:00 +11°C° 0,1 mm 1 m/s 717 mmHg 60%
    18:00 +10°C° 0,1 mm 1 m/s 717 mmHg 66%
    19:00 +8°C° 0,1 mm 1 m/s 717 mmHg 72%
    20:00 +7°C° 0 mm 1 m/s 717 mmHg 75%
    21:00 +7°C° 0 mm 1 m/s 717 mmHg 78%
    22:00 +6°C° 0 mm 1 m/s 717 mmHg 81%
    23:00 +6°C° 0 mm 1 m/s 717 mmHg 82%
    Mostrar mais